Weather History for La Paz, Mexico

Change the Weather History Date:

Wednesday, June 25, 2014

  Actual Average Record
Temperature  
Mean Temperature 89 °F -  
Max Temperature 100 °F 96 °F 104 °F (2007)
Min Temperature 78 °F 72 °F 68 °F (2002)
Cooling Degree Days 24    
Growing Degree Days 39 (Base 50)    
Moisture  
Dew Point 66 °F    
Average Humidity 45    
Maximum Humidity 62    
Minimum Humidity 16    
Precipitation  
Precipitation 0.00 in - - ()
Sea Level Pressure  
Sea Level Pressure 29.86 in    
Wind  
Wind Speed 6 mph ()    
Max Wind Speed 15 mph    
Max Gust Speed -    
Visibility 10.6 miles    
Events      
Averages and records for this station are not official NWS values.
T = Trace of Precipitation, MM = Missing Value Source: Averaged Metar Reports

Daily Weather History Graph

Daily Weather History Graph

Search for Another Location

Airport:

Trip Planner

Search our weather history database for the weather conditions in past years. The results will help you decide how hot, cold, wet, or windy it might be!

Date:

Astronomy

Jun. 25, 2014 Rise Set
Actual Time 6:35 AM MDT 8:12 PM MDT
Civil Twilight 6:09 AM MDT 8:38 PM MDT
Nautical Twilight 5:39 AM MDT 9:08 PM MDT
Astronomical Twilight 5:07 AM MDT 9:40 PM MDT
Moon 5:19 AM MDT (6/25) 6:56 PM MDT (6/25)
Length of Visible Light 14h 28m
Length of Day
13h 37m
Waning Crescent, 2% of the Moon is Illuminated
Jun 25
Waning Crescent
Jun 27
New
Jul 5
First Quarter
Jul 12
Full
Jul 18
Last Quarter

Hourly Weather History & Observations

Time (MDT) Temp. Heat Index Dew Point Humidity Pressure Visibility Wind Dir Wind Speed Gust Speed Precip Events Conditions
2:50 AM 82 °F - 55 °F 28% 29.88 in 2 mi SSE 6.7 mph - -   Scattered Clouds
5:50 AM 81 °F - 66 °F 52% 29.86 in 2 mi South 4.5 mph - -  
6:01 AM 77.0 °F - 44.6 °F 32% 29.89 in 10.0 mi SSW 6.9 mph - N/A   Partly Cloudy
8:40 AM 82.4 °F 85.4 °F 68.0 °F 62% 29.91 in 10.0 mi SW 5.8 mph - N/A   Clear
8:50 AM 86 °F - 67 °F 43% 29.91 in 16 mi SSW 4.5 mph - -  
9:44 AM 86.0 °F 89.4 °F 68.0 °F 55% 29.90 in 10.0 mi South 4.6 mph - N/A   Clear
10:42 AM 89.6 °F 93.4 °F 68.0 °F 49% 29.89 in 10.0 mi Calm Calm - N/A   Clear
11:40 AM 91.4 °F 95.4 °F 68.0 °F 46% 29.88 in 12.0 mi North 6.9 mph - N/A   Clear
11:50 AM 96 °F - 54 °F 16% 29.89 in 19 mi NW 4.5 mph - -   Scattered Clouds
12:48 PM 93.2 °F 96.2 °F 66.2 °F 41% 29.86 in 12.0 mi North 8.1 mph - N/A   Clear
1:43 PM 91.4 °F 96.8 °F 69.8 °F 49% 29.84 in 12.0 mi North 13.8 mph - N/A   Partly Cloudy
2:40 PM 93.2 °F 97.7 °F 68.0 °F 44% 29.83 in 12.0 mi NNW 6.9 mph - N/A   Partly Cloudy
2:50 PM 99 °F - 72 °F 33% 29.83 in 19 mi NNW 8.9 mph - -   Scattered Clouds
3:40 PM 95.0 °F 99.5 °F 68.0 °F 41% 29.82 in 12.0 mi NNW 6.9 mph - N/A   Partly Cloudy
4:40 PM 93.2 °F 98.8 °F 69.8 °F 46% 29.81 in 12.0 mi NNW 4.6 mph - N/A   Partly Cloudy
5:40 PM 93.2 °F 94.9 °F 64.4 °F 38% 29.80 in 12.0 mi SW 15.0 mph - N/A   Partly Cloudy
5:45 PM 98 °F - 70 °F 31% 29.79 in 19 mi WSW 8.9 mph - -   Scattered Clouds
6:45 PM 89.6 °F 92.2 °F 66.2 °F 46% 29.81 in 10.0 mi SW 12.7 mph - N/A   Partly Cloudy
7:41 PM 87.8 °F 90.4 °F 66.2 °F 49% 29.82 in 10.0 mi SW 6.9 mph - N/A   Clear
8:41 PM 84.2 °F 87.3 °F 68.0 °F 58% 29.85 in 10.0 mi SW 8.1 mph - N/A   Clear
8:45 PM 87 °F - 71 °F 49% 29.82 in 2 mi SSW 8.9 mph - -  
9:40 PM 82.4 °F 85.4 °F 68.0 °F 62% 29.88 in 10.0 mi SSW 5.8 mph - N/A   Clear
10:40 PM 82.4 °F 85.4 °F 68.0 °F 62% 29.91 in 10.0 mi SSW 6.9 mph - N/A   Clear
11:50 PM 83 °F - 70 °F 57% 29.90 in 2 mi WSW 6.7 mph - -